Volver al catálogo

WEILI KONGJIAN 05-06

ActivoNavegaciónLEO
NORAD 69587·PAYLOAD·🇨🇳 China
Este nombre de satélite aún no ha sido confirmado por fuentes oficiales.

Lanzado Jun 17, 2026 desde Jiuquan Satellite Launch Center

Loading…

Próximos Pases (próximas 24 horas)

TLE

ActualizadoSource: Space-Track

Época: Sep 14, 2026, 10:39 UTC

1 69587U 26138F   26257.44433149  .00000080  00000-0  13453-3 0  9996
2 69587  55.1425 311.9932 0007934 242.1187 117.8980 14.08290009 12656

Sigue WEILI KONGJIAN 05-06 en tiempo real con AllMySat

Download on the App Store